Regional Weather Roundup
Issued by NWS Charleston, SC

Current Version | Previous Version | Graphics & Text | Print | Product List | Glossary On
Versions: 1 2 3 4 5 6 7 8 9 10 11 12 13 14 15 16 17 18 19 20 21 22 23 24 25 26 27 28 29 30 31 32 33 34 35 36 37 38 39 40 41 42 43 44 45 46 47 48 49 50
861
ASUS42 KCHS 290012
RWRCHS

REGIONAL WEATHER ROUNDUP
NATIONAL WEATHER SERVICE CHARLESTON SC
800 PM EDT TUE MAR 28 2017

NOTE: "FAIR" INDICATES FEW OR NO CLOUDS BELOW 12,000 FEET WITH NO
SIGNIFICANT WEATHER AND/OR OBSTRUCTIONS TO VISIBILITY.

NOT ALL STATIONS ARE QUALITY CONTROLLED. USE DATA WITH CAUTION...
ESPECIALLY DEWPOINT OBSERVATIONS.

SCZ027-030-031-034>040-042>050-290100-
...SOUTHEAST SOUTH CAROLINA...

CITY           SKY/WX    TMP DP  RH WIND       PRES   REMARKS
N CHARLESTON   PTCLDY    67  62  84 S8        29.92R
6HR MIN TEMP:  67; 6HR MAX TEMP:  88; 6HR PCP:  0.01;

WATERFRONT PRK   N/A     69  64  84 SW7       29.91R
JOHNS ISLAND   MOCLDY    66  64  94 S7        29.93F
PINOPOLIS        N/A     75  63  64 SW7       29.83R
MONCKS CORNER  FAIR      72  61  68 S7        29.91R
SUMMERVILLE    FAIR      70  64  83 S3        29.93R
BEAUFORT MCAS  PTCLDY    69  69 100 S3        29.93R
6HR MIN TEMP:  69; 6HR MAX TEMP:  88; 6HR PCP:  0.19;

BEAUFORT ARPT  FAIR      68  64  88 CALM      29.93S
HILTON HEAD IS PTCLDY    72  63  73 S12       29.95R
WALTERBORO     CLEAR     70  68  94 CALM      29.93R
ALLENDALE      FAIR      79  57  47 CALM      29.91R

...SOUTHERN MIDLANDS AND PEE DEE...

CITY           SKY/WX    TMP DP  RH WIND       PRES   REMARKS
GEORGETOWN     FAIR      68  61  77 SW6       29.92R
KINGSTREE      FAIR      77  54  44 CALM      29.89R
ORANGEBURG     CLEAR     77  56  48 W6        29.91R
6HR MIN TEMP:  77; 6HR MAX TEMP:  84;

BARNWELL       FAIR      79  59  50 CALM      29.92R
AIKEN          FAIR      72  55  56 SW6       29.95S
MANNING        FAIR      72  57  60 CALM      29.90R
COLUMBIA       PTCLDY    78  57  48 SW6       29.89R
6HR MIN TEMP:  77; 6HR MAX TEMP:  85;

SUMTER         CLEAR     76  58  54 SW6       29.88R
6HR MIN TEMP:  76; 6HR MAX TEMP:  84;

FLORENCE       CLEAR     77  56  48 W6        29.88R
6HR MIN TEMP:  76; 6HR MAX TEMP:  85; 6HR PCP: TRACE;

MYRTLE BEACH   PTCLDY    70  61  73 S9        29.90R
N MYRTLE BEACH MOCLDY    66  61  84 SW9       29.89R
6HR MIN TEMP:  66; 6HR MAX TEMP:  73;


$$

GAZ063-065-086>088-099>101-113>116-118-119-134>141-150-290100-
...SOUTHEAST GEORGIA...

CITY           SKY/WX    TMP DP  RH WIND       PRES   REMARKS
SAVANNAH ARPT  PTCLDY    78  57  48 W8        29.94R
6HR MIN TEMP:  78; 6HR MAX TEMP:  87;

HUNTER AAF     PTCLDY    79  62  55 CALM      29.91R
6HR MIN TEMP:  79; 6HR MAX TEMP:  87;

FORT STEWART   PTCLDY    78  59  53 W5        29.92R
6HR MIN TEMP:  78; 6HR MAX TEMP:  86; 6HR PCP: TRACE;

STATESBORO     CLEAR     78  63  59 CALM      29.93R
SYLVANIA       CLEAR    N/A N/A N/A CALM      29.93S
CLAXTON        FAIR     N/A N/A N/A CALM      29.94S

...CSRA...CENTRAL AND FAR SOUTHEAST GEORGIA...

CITY           SKY/WX    TMP DP  RH WIND       PRES   REMARKS
THOMSON        PTCLDY    75  58  55 CALM      29.98R
AUGUSTA-BUSH   CLEAR     75  60  59 SW3       29.91R
6HR MIN TEMP:  75; 6HR MAX TEMP:  85;

AUGUSTA-DANIEL CLEAR     79  56  45 NW3       29.93R
SWAINSBORO     FAIR      75  61  60 CALM      29.95R
VIDALIA        MOCLDY    77  61  57 CALM      29.95R
EASTMAN        FAIR      80  45  29 CALM      29.98R
HAZLEHURST     FAIR      78  61  55 SW3       29.94S
ALMA           CLEAR     77  61  57 SW7       29.96R
6HR MIN TEMP:  77; 6HR MAX TEMP:  83;

WAYCROSS       CLEAR     79  65  62 CALM      29.97R
JESUP          FAIR      77  59  53 CALM      29.95S
BAXLEY         FAIR      77  64  65 CALM      29.95R
BRUNSWICK      CLEAR     73  66  78 S8        29.96R
SAINT SIMONS   CLEAR     70  64  81 S10       29.96R
6HR MIN TEMP:  70; 6HR MAX TEMP:  85;


$$

SCZ027-028-034-036>038-045-046-048>050-GAZ119-141-290100-
...LAKE AND SUPPLEMENTAL COASTAL OBSERVATIONS...

STATION/POSITION TIME  TEMP    WIND        PRES    WAVE   SWELL
                       AIR SEA DIR/SP/G            HT/PER HT/PER/DIR
                 (UTC) (F)     (DEG/KT/KT) (MB)    (FT/S) (FT/S/D)
WINYAH BAY       NOT AVBL
LAKE MURRAY      2320   79     280/  9/ 14 1011.5R
ACE BASIN NERRS  NOT AVBL
FORT PULASKI     2336   70 66  210/  8/ 12 1014.0R
SAPELO ISLAND    2300   75     160/  9     1014.0

$$

ANZ835-935-AMZ111-154-330-350-352-354-370-450-454-472-290100-
...C-MAN AND BUOY OBSERVATIONS...

STATION/POSITION TIME  TEMP    WIND        PRES    WAVE   SWELL
                       AIR SEA DIR/SP/G            HT/PER HT/PER/DIR
                 (UTC) (F)     (DEG/KT/KT) (MB)    (FT/S) (FT/S/D)
BUOY 41004       2350   72 72  210/ 16/ 17 1012.6R   5/10   5/130/10
BUOY 41008       2350   66 65  180/ 12/ 14 1013.8R   3/11   3/110/11
FOLLY BEACH CMAN 2300   67     300/  7/ 11 1014.4R
CAPERS NEARSHORE 2308   65     260/ 12/ 16 1013.0R
FRIPP NEARSHORE  2308   69 64  240/ 14/ 23 1013.9R


STATION/POSITION TIME  TEMP    WIND        PRES    WAVE   SWELL
                       AIR SEA DIR/SP/G            HT/PER HT/PER/DIR
                 (UTC) (F)     (DEG/KT/KT) (MB)    (FT/S) (FT/S/D)
5E ST. MARYS GA  2330      68                N/A     4/11   3/120/11
FRYING PAN BUOY  2350   74 74  220/ 19/ 23 1012.4R   5/11   3/150/11
BUOY 41025       2350   73 75  230/ 14/ 17 1011.7    4/10   3/120/10
CAPE LOOKOUT NC  2300   68     220/  8/ 14 1011.5F
BUOY 41002       2350   70 73  190/ 10/ 12 1015.7R   6/ 9   5/ 90/ 9
BUOY 41010       NOT AVBL
ST AUGUSTINE FL  0000   71 70  170/ 13/ 14 1015.9R


$$




USA.gov is the U.S. government's official web portal to all federal, state and local government web resources and services.